Regional Weather Roundup
Issued by NWS

Home | Current Version | Previous Version | Graphics & Text | Print | Product List | Glossary On
Versions: 1 2 3 4 5 6 7 8 9 10 11 12 13 14 15 16 17 18 19 20 21 22 23 24 25 26 27 28 29 30 31 32 33 34 35 36 37 38 39 40 41 42 43 44 45 46 47 48 49 50
000
ASUS45 KTFX 250819
RWRMT
MONTANA HOURLY WEATHER ROUNDUP
NATIONAL WEATHER SERVICE GREAT FALLS MT
119 AM MST SUN JAN 25 2015

NOTE: "FAIR" INDICATES FEW OR NO CLOUDS BELOW 12000 FEET WITH NO
SIGNIFICANT WEATHER AND/OR OBSTRUCTIONS TO VISIBILITY.

* THESE STATIONS ARE NOT UNDER NWS QUALITY CONTROL. THEY DO NOT
   REPORT WEATHER SUCH AS PRECIPITATION OR FOG.

MTZ001>007-043-250900-
WEST OF THE DIVIDE
CITY           SKY/WX    TMP DP  RH WIND       PRES   REMARKS
KALISPELL      CLOUDY    36  36 100 S7        30.19S WCI  30
MISSOULA       FOG       34  32  92 NE3       30.27F VSB 1 1/4
BUTTE          CLOUDY    34  30  85 CALM      30.25F
MULLAN PASS    FOG       37  37 100 SW12G22   30.22F VSB M1/4 WCI  29
* ANACONDA     MOCLDY    48  36  63 W11        N/A
* ESSEX        N/A       34  33  96 N/A        N/A
* EUREKA APT   MOCLDY    43  37  79 SE12      30.16S
* HAMILTON APT PTCLDY    46  39  77 S20       30.26F
* LIBBY APT    PTCLDY    34  34 100 CALM      30.19F VSB M1/4
* LINCOLN      N/A       39  37  93 W3G12      N/A
* LOOKOUT PASS N/A       40  40 100 W1G7       N/A
* POLSON       N/A       38  38 100 SE2        N/A
* RONAN APT    PTCLDY    37  37 100 N/A        N/A
* SEELEY LAKE  N/A       34  33  96 NE1G6      N/A
* THOMP F APT  PTCLDY    22  18  85 SE5        N/A   WCI  15
* YAAK HILL    N/A       35  33  92 E2         N/A
$$

MTZ008-052>055-250900-
SOUTHWEST MONTANA
CITY           SKY/WX    TMP DP  RH WIND       PRES   REMARKS
BOZEMAN        CLOUDY    34  32  92 SE5       30.24F WCI  29
DILLON         CLOUDY    43  34  71 S14       30.26S
* W YELLOWSTON CLEAR     23  21  92 N2         N/A
* THREE FORKS  PTCLDY    37  37 100 N/A        N/A
* BOULDER HILL N/A       42  32  68 S9         N/A
* MONIDA PASS  N/A       22  22 100 SE16       N/A   WCI   8
* RAYNOLDS PAS N/A       24   7  48 SE22G27    N/A   WCI   9
* WHITEHALL    N/A       41  33  73 N5G12      N/A
* WISE RIVER   N/A       43  35  73 W14G23     N/A
$$

MTZ009>010-012-014-046-048-049-054-250900-
EAST SLOPES AND CENTRAL MONTANA
CITY           SKY/WX    TMP DP  RH WIND       PRES   REMARKS
CUT BANK       CLOUDY    45  36  71 W22       29.99F
GREAT FALLS    CLOUDY    45  36  71 SW17      30.06F
HELENA         MOCLDY    48  37  66 W16G22    30.17F
MALMSTROM AFB  CLOUDY    46  37  71 SW21      30.06F
* CONRAD       CLOUDY    37  34  89 CALM       N/A
* DEARBORN     N/A       50  36  59 S4G12      N/A
* EAST GLACIER N/A       43  37  79 W26G32     N/A
* MONARCH      N/A       41  29  62 SW14G20    N/A
* PENDROY      N/A       47  35  63 W11G16     N/A
* ROGERS PASS  N/A       40  36  86 SE16G25    N/A   WCI  32
* SWEET GRASS  N/A       43  33  68 SW14G19    N/A
* WHITE SULPH  N/A       40  34  79 NW6G14     N/A   WCI  36
$$

MTZ011-013-016-021-035-040-045-047-050-051-250900-
NORTH CENTRAL MONTANA
CITY           SKY/WX    TMP DP  RH WIND       PRES   REMARKS
HAVRE          MOCLDY    30  27  89 SW8       30.04F WCI  22
LEWISTOWN      MOCLDY    34  27  76 SW14      30.07F WCI  24
* N BAR RANCH  CLEAR     32  25  75 SW6       30.07F WCI  26
* CHINOOK      MOCLDY    28  27  96 CALM      30.04F
* CHESTER      N/A       30  26  85 N/A        N/A
* DENTON       N/A       36  30  79 S8         N/A   WCI  30
* GEYSER       N/A       46  33  61 NW12G17    N/A
* JUDITH GAP   N/A       40  33  76 W12G19     N/A   WCI  33
* LOMA         N/A       37  31  79 NE3        N/A
$$

MTZ017>020-022>027-061-062-250900-
NORTHEAST MONTANA
CITY           SKY/WX    TMP DP  RH WIND       PRES   REMARKS
GLASGOW        PTCLDY    30  25  82 NW8       30.04R WCI  22
GLENDIVE       CLEAR     36  27  70 NW16      30.02R WCI  26
JORDAN         PTCLDY    30  27  89 CALM      30.07R
SIDNEY         CLOUDY    36  28  73 NW10      30.02R WCI  29
WOLF POINT     CLEAR     32  28  85 SW8       30.05R WCI  25
* BEAVER HILL  N/A       32  27  82 W12        N/A   WCI  23
* CIRCLE       N/A       34  29  82 W8         N/A   WCI  27
* LINDSAY DVD  N/A       32  27  82 W18G24     N/A   WCI  21
* NAVAJO       N/A       33  29  85 NW17G25    N/A   WCI  22
* PLENTYWOOD A CLEAR     34  30  85 NW21G28   29.95R WCI  22
* POPLAR APT   CLEAR     36  28  73 W13       30.02R WCI  27
* SACO         N/A       32  26  79 W7         N/A   WCI  25
* SCOBEY APT   CLEAR     32  21  64 NW10       N/A   WCI  24
$$

MTZ028>042-056>058-250900-
SOUTHCENTRAL AND SOUTHEAST MONTANA
CITY           SKY/WX    TMP DP  RH WIND       PRES   REMARKS
BAKER          CLEAR     30  27  89 W13       30.01R WCI  20
BILLINGS       PTCLDY    45  28  51 W12       30.10F
LIVINGSTON     CLOUDY    45  28  51 SW28G40   30.15S
MILES CITY     CLEAR     34  27  76 NW8       30.08R WCI  27
* BIG TIMBER A PTCLDY    45  32  60 W10G17    30.15R
* FORSYTH APT  CLEAR     36  28  73 CALM      30.09R
* LAUREL APT   PTCLDY    43  23  45 N/A        N/A
* ROUNDUP APT  PTCLDY    34  25  70 SW5        N/A   WCI  29
* ALZADA       N/A       33  26  75 W9         N/A   WCI  25
* HYSHAM       N/A       34  26  73 W4         N/A
* LAME DEER    N/A       34  27  76 W10        N/A   WCI  26
* REED POINT   N/A       47  33  58 W10        N/A
* ROSCOE HILL  N/A       46  21  37 W9G16      N/A
$$

REGIONAL REPORTS...DAKOTAS
CITY           SKY/WX    TMP DP  RH WIND       PRES   REMARKS
WILLISTON      CLOUDY    36  30  79 W14       29.97R WCI  27
DICKINSON      CLOUDY    36  28  73 NW17      29.91R WCI  26
BEACH          CLEAR     32  30  92 NW16      29.99R WCI  21
CROSBY         CLOUDY    32  32 100 NW23G31   29.94R WCI  19
TIOGA          CLOUDY    34  34 100 NW22      29.94R WCI  22
WATFORD CITY   CLOUDY    36  32  85 NW15      29.94R WCI  27
BISMARCK       CLOUDY    37  32  82 NW13      29.88R WCI  29
GRAND FORKS    CLOUDY    19  12  74 N7        29.93R WCI  10
FARGO          CLOUDY    25  18  75 N14       29.87R WCI  13
BUFFALO SD     CLEAR     34  27  76 NW20      29.92R WCI  23
RAPID CITY     CLEAR     37  23  57 NW21      29.99R WCI  26
$$

REGIONAL REPORTS...WYOMING/IDAHO/WASHINGTON
CITY           SKY/WX    TMP DP  RH WIND       PRES   REMARKS
GILLETTE       CLEAR     30  25  82 W8        30.09S WCI  22
SHERIDAN       PTCLDY    30  27  89 W6        30.10F WCI  24
CODY           PTCLDY    45  25  45 W7        30.15S
YELLOWSTONE LA MOCLDY    23  19  85 CALM      30.35F
SALMON         CLOUDY    30  27  89 CALM      30.40S
MULLAN PASS    FOG       37  37 100 SW12G22   30.22S VSB M1/4 WCI  29
SAND POINT     FOG       36  36 100 CALM      30.21S VSB 2
SPOKANE        FOG       39  37  93 CALM      30.21F
$$

REGIONAL REPORTS...ALBERTA
CITY           SKY/WX    TMP DP  RH WIND       PRES   REMARKS
CALGARY        MOCLDY    34  25  70 S8        29.85F WCI  27
LETHBRIDGE     CLEAR     46  36  68 SW21G26   29.92F
MEDICINE HAT   MOCLDY    30  28  92 S2        29.97F
EDMONTON       LGT RAIN  39  27  62 VRB2      29.80F
WATERTON GATE  N/A       48  34  59 SW18G29    N/A
CARDSTON       N/A       46  36  68 SW7        N/A
MILK RIVER     N/A       41  36  82 W10        N/A
$$

REGIONAL REPORTS...SASKATCHEWAN
CITY           SKY/WX    TMP DP  RH WIND       PRES   REMARKS
SWIFT CURRENT  CLEAR     28  27  96 SW10      29.98F WCI  19
REGINA         MOCLDY    21  18  88 N9G17     29.97R WCI  11
VAL MARIE      N/A       28  25  89 NW9        N/A   WCI  19
ASSINIBOIA     N/A       30  27  89 NW8        N/A   WCI  22
CORONACH       N/A       30  28  92 W15        N/A   WCI  19

$$



USA.gov is the U.S. government's official web portal to all federal, state and local government web resources and services.